Flag for Canada Weather past 2 weeks in Brantford, Ontario, Canada

Now
81 °F

Partly sunny.


Feels Like: 81 °F
Forecast: 60 / 79 °F
Wind: 29 mph from Southwest

Location: Hamilton Airport

Current Time: May 25, 2015 at 4:13:18 PM

Latest Report: May 25, 2015 at 3:00 PM


Visibility: 15 mi

Pressure: 30.00 "Hg

Humidity: 51%

Dew point: 61 °F

Location of BrantfordLocation

Historic Weather in Brantford — Graph

°F

Brantford temperature yesterday

Maximum temperature yesterday: 79 °F (at 2:00 PM)
Minimum temperature yesterday: 46 °F (at 2:00 AM)
Average temperature yesterday: 64 °F

Past Weeks' High & Low Weather Summary

 TemperatureHumidityPressure
High82 °F (May 10, 5:00 PM)100% (May 11, 1:00 AM)30.50 "Hg (May 11, 1:00 AM)
Low32 °F (May 23, 3:00 AM)19% (May 22, 7:00 PM)29.78 "Hg (May 12, 2:00 AM)
Average57 °F62%30.11 "Hg
* Reported May 10 3:00 PM — May 25 3:00 PM, Brantford, Weather by CustomWeather, © 2015

Note: Actual official high and low records may vary slightly from our data, if they occured in-between our weather recording intervals... More about our weather records

Advertising

Brantford weather history for previous 24 hours

 ConditionsComfort  
Time TempWeatherWind HumidityBarometerVisibility
3:00 PM
Mon, May 25
81 °FPartly sunny.29 mph51%30.00 "Hg15 mi
2:00 PM81 °FBroken clouds.26 mph51%30.00 "Hg15 mi
1:00 PM79 °FBroken clouds.21 mph54%30.01 "Hg15 mi
12:00 PM75 °FBroken clouds.15 mph57%30.04 "Hg15 mi
11:00 AM75 °FPartly sunny.17 mph50%30.05 "Hg15 mi
10:00 AM73 °FPartly sunny.18 mph50%30.07 "Hg15 mi
9:00 AM70 °FBroken clouds.9 mph57%30.08 "Hg15 mi
8:00 AM66 °FPartly sunny.5 mph56%30.09 "Hg15 mi
7:00 AM63 °FPartly sunny.5 mph68%30.10 "Hg15 mi
6:00 AM61 °FMostly cloudy.5 mph68%30.10 "Hg15 mi
5:00 AM63 °FMostly cloudy.6 mph64%30.09 "Hg15 mi
4:00 AM63 °FOvercast.6 mph59%30.10 "Hg15 mi
3:00 AM63 °FMostly cloudy.6 mph59%30.11 "Hg15 mi
2:00 AM64 °FMostly cloudy.5 mph52%30.13 "Hg15 mi
1:00 AM64 °FMostly cloudy.3 mph52%30.14 "Hg12 mi
12:00 AM66 °FOvercast.5 mph49%30.14 "Hg15 mi
11:00 PM
Sun, May 24
66 °FOvercast.6 mph52%30.15 "Hg15 mi
10:00 PM68 °FOvercast.7 mph49%30.16 "Hg15 mi
9:00 PM70 °FBroken clouds.7 mph46%30.16 "Hg15 mi
8:00 PM72 °FOvercast.8 mph44%30.16 "Hg15 mi
7:00 PM75 °FOvercast.14 mph34%30.17 "Hg15 mi
6:00 PM77 °FMostly cloudy.21 mph34%30.17 "Hg15 mi
5:00 PM77 °FBroken clouds.16 mph36%30.17 "Hg15 mi
4:00 PM79 °FBroken clouds.14 mph37%30.18 "Hg15 mi
Weather by CustomWeather, © 2015

See weather overviewHow to use our weather pages